Location: Biltmore Gardens
(41.6070°N, 83.4666°W)
Time: 09:40:39
(UTC+00:00)

Cosmos 2344 - Pass Details

Date: 27 October 2020
Orbit: 1246 x 2997 km, 63.3° (Epoch: 03 December)

Event Time Altitude Azimuth Distance (km) Brightness Sun altitude
Exits shadow 07:07:18 16° 67° (ENE) 2,772 5.7 -52.7°
Drops below altitude 10° 07:09:11 10° 56° (ENE) 3,276 6.2 -52.5°
Sets 07:12:33 0° 45° (NE) 4,346 7.0 -52.0°
